Location: Poughquag
(41.6090°N, 73.6820°W)
Time: 19:25:17
(UTC-04:00)

MOZHAYETS 4 - Pass Details

Date: 21 August 2024
Orbit: 650 x 668 km, 98.3° (Epoch: 15 September)

Event Time Altitude Azimuth Distance (km) Brightness Sun altitude
Exits shadow 04:09:44 - 157° (SSE) 2,850 10.8 -20.7°
Reaches altitude 10° 04:11:37 10° 154° (SSE) 2,090 10.1 -20.4°
Maximum altitude 04:16:07 63° 74° (ENE) 747 8.1 -19.7°
Drops below altitude 10° 04:20:40 10° 353° (N) 2,103 10.7 -19.0°
Sets 04:22:55 0° 351° (N) 3,020 11.5 -18.7°
